BREEZE-KM R/B, 39764

Orbit data source: Space-Track

BREEZE-KM R/B, 39764 is space debris in LEO originally from a launch on Fri, 23 May 2014 UTC launched from the Plesetsk Missile And Space Complex (PKMTR). Debris objects in space refer to the collection of defunct objects orbiting the Earth. Examples of debris include non-operational satellites, rocket bodies, and fragments generated from explosions, collisions, or faulty payload assembly.

Loading next visibility...
Identifier
39764, 2014-028D
Orbit
LEO
Country
Flag of CISCIS
Related business
Manufacturer
Khrunichev
Mission
Spacecraft
Bus & Motor
BRIZ, S5.92
Mass
2,370 kg wet, 2,370 kg dry
Launch date (UTC)
2014-05-23 (12 years ago)
Launch vehicle
Unknown
Launch site
Plesetsk Missile And Space Complex (PKMTR)
Object type
Payload
Rocket body
Debris
Shape & HBR
Hex Cyl + 1 Rod, 2.0 m
Radar Cross Section
10.190 m², Large (>1 m²)

Expand to show TLE details & history
Last TLE update: 14 hours ago

TLE from 14 hours ago
0 BREEZE-KM R/B
1 39764U 14028D   25351.54453617  .00000028  00000-0  56615-4 0  9992
2 39764  82.4412  11.9038 0230011  62.1457 300.2743 12.83549330542150
Epoch: 2025-12-17T13:04Z
TLE epoch observation values (Epoch: 2025-12-17T13:04:07.925Z)
Latitude
-0.00003°
Longitude
89.45791°
Altitude
1,243.718 km
Speed
7.273 km/s
True Right ascension
00h 47m 36s
True Declination
0° 00' 00"
Sunlit
Object was in daylight at epoch
Visualization orbit readout
Latitude
Unknown
Longitude
Unknown
Altitude
Unknown
Speed
Unknown
Apparent Right ascension
Unknown
Apparent Declination
Unknown
Sunlit
N/A
Visualization observer readout
Local Sidereal Time
01:22:12
Azimuth
Unknown
Elevation
Unknown
Doppler factor
Unknown
Orbital elements
Apogee altitude
1,501.696 km
Perigee altitude
1,147.356 km
Semi-major axis
7,702.663 km
Eccentricity
0.023
Inclination
82.4412°
RAAN
11.9038°
Arg. of periapsis
62.1457°
True anomaly
297.96519°
Mean anomaly
300.2743°
Eccentric anomaly
299.12304°
Mean motion
3.21057 °/min
Orbital period
112.13 mins
BSTAR
0.000056615
Loading maneuver chart data...
Computing Atmospheric mass density...
Loading historical data...
Loading historical data...
Loading historical data...
Loading historical data...
Loading historical data...
Loading historical data...
Loading historical data...

Documentation

Showing up to 5 results
|